Hourly Weather Bolshie Ozerki

Today, 20 June, Sunday

Time Temperature Precipitation Wind Pressure Humidity
00:00 +16°C° 0 mm 1 mps 752 mmHg 80%
01:00 +16°C° 0 mm 1 mps 752 mmHg 82%
02:00 +16°C° 0 mm 1 mps 752 mmHg 83%
03:00 +15°C° 0 mm 1 mps 752 mmHg 85%
04:00 +16°C° 0 mm 1 mps 752 mmHg 84%
05:00 +18°C° 0 mm 1 mps 752 mmHg 83%
06:00 +18°C° 0 mm 1 mps 752 mmHg 82%
07:00 +19°C° 0 mm 2 mps 752 mmHg 77%
08:00 +21°C° 0 mm 2 mps 752 mmHg 71%
09:00 +22°C° 0 mm 3 mps 752 mmHg 66%
10:00 +25°C° 0 mm 3 mps 752 mmHg 62%
11:00 +26°C° 0 mm 3 mps 752 mmHg 57%
12:00 +27°C° 0 mm 3 mps 752 mmHg 53%
13:00 +27°C° 0 mm 3 mps 751 mmHg 53%
14:00 +28°C° 0 mm 3 mps 751 mmHg 52%
15:00 +28°C° 0 mm 3 mps 751 mmHg 51%
16:00 +28°C° 0 mm 3 mps 751 mmHg 56%
17:00 +27°C° 0 mm 2 mps 750 mmHg 61%
18:00 +27°C° 0 mm 2 mps 750 mmHg 66%
19:00 +25°C° 0 mm 2 mps 750 mmHg 70%
20:00 +23°C° 0 mm 2 mps 750 mmHg 75%
21:00 +21°C° 0 mm 2 mps 750 mmHg 79%
22:00 +20°C° 0 mm 2 mps 750 mmHg 80%
23:00 +20°C° 0 mm 2 mps 750 mmHg 82%

Tomorrow, 21 June, Monday

Time Temperature Precipitation Wind Pressure Humidity
00:00 +19°C° 0 mm 3 mps 750 mmHg 83%
01:00 +19°C° 0 mm 3 mps 750 mmHg 83%
02:00 +18°C° 0 mm 3 mps 750 mmHg 84%
03:00 +18°C° 0 mm 3 mps 750 mmHg 84%
04:00 +18°C° 0 mm 3 mps 750 mmHg 84%
05:00 +19°C° 0 mm 2 mps 750 mmHg 84%
06:00 +19°C° 0 mm 2 mps 750 mmHg 84%
07:00 +21°C° 0 mm 3 mps 750 mmHg 78%
08:00 +24°C° 0 mm 3 mps 750 mmHg 73%
09:00 +25°C° 0 mm 3 mps 750 mmHg 67%
10:00 +26°C° 0 mm 4 mps 750 mmHg 64%
11:00 +27°C° 0 mm 4 mps 750 mmHg 60%
12:00 +28°C° 0 mm 4 mps 750 mmHg 57%
13:00 +29°C° 0 mm 4 mps 750 mmHg 56%
14:00 +29°C° 0 mm 4 mps 750 mmHg 54%
15:00 +30°C° 0 mm 4 mps 750 mmHg 53%
16:00 +30°C° 0 mm 4 mps 750 mmHg 58%
17:00 +29°C° 0 mm 3 mps 749 mmHg 62%
18:00 +29°C° 0 mm 3 mps 749 mmHg 67%
19:00 +27°C° 0 mm 3 mps 749 mmHg 71%
20:00 +25°C° 0 mm 3 mps 749 mmHg 76%
21:00 +22°C° 0 mm 3 mps 750 mmHg 81%
22:00 +22°C° 0 mm 3 mps 750 mmHg 82%
23:00 +21°C° 0 mm 3 mps 750 mmHg 82%

Day after tomorrow, 22 June, Tuesday

Time Temperature Precipitation Wind Pressure Humidity
00:00 +20°C° 0 mm 3 mps 750 mmHg 83%
01:00 +20°C° 0 mm 3 mps 750 mmHg 84%
02:00 +19°C° 0 mm 3 mps 750 mmHg 85%
03:00 +19°C° 0 mm 3 mps 750 mmHg 87%
04:00 +19°C° 0 mm 3 mps 750 mmHg 86%
05:00 +20°C° 0 mm 2 mps 750 mmHg 86%
06:00 +21°C° 0 mm 2 mps 750 mmHg 85%
07:00 +22°C° 0 mm 3 mps 750 mmHg 79%
08:00 +25°C° 0 mm 3 mps 750 mmHg 74%
09:00 +27°C° 0 mm 3 mps 750 mmHg 68%
10:00 +28°C° 0 mm 3 mps 750 mmHg 63%
11:00 +29°C° 0 mm 3 mps 750 mmHg 58%
12:00 +30°C° 0 mm 3 mps 750 mmHg 53%
13:00 +31°C° 0 mm 3 mps 750 mmHg 51%
14:00 +31°C° 0 mm 3 mps 750 mmHg 49%
15:00 +31°C° 0 mm 3 mps 750 mmHg 47%
16:00 +31°C° 0 mm 2 mps 750 mmHg 52%
17:00 +31°C° 0 mm 2 mps 750 mmHg 58%
18:00 +30°C° 0 mm 2 mps 749 mmHg 63%
19:00 +28°C° 0 mm 2 mps 749 mmHg 66%
20:00 +26°C° 0 mm 2 mps 749 mmHg 70%
21:00 +24°C° 0 mm 2 mps 749 mmHg 73%
22:00 +24°C° 0 mm 2 mps 749 mmHg 75%
23:00 +23°C° 0 mm 2 mps 749 mmHg 77%

23 June, Wednesday

Time Temperature Precipitation Wind Pressure Humidity
00:00 +21°C° 0 mm 2 mps 749 mmHg 80%
01:00 +21°C° 0 mm 2 mps 749 mmHg 81%
02:00 +21°C° 0 mm 2 mps 749 mmHg 83%
03:00 +20°C° 0 mm 2 mps 749 mmHg 84%
04:00 +21°C° 0 mm 2 mps 749 mmHg 83%
05:00 +21°C° 0 mm 2 mps 749 mmHg 83%
06:00 +23°C° 0 mm 2 mps 750 mmHg 82%
07:00 +25°C° 0 mm 3 mps 749 mmHg 75%
08:00 +26°C° 0 mm 3 mps 749 mmHg 69%
09:00 +28°C° 0 mm 3 mps 749 mmHg 62%
10:00 +29°C° 0 mm 3 mps 750 mmHg 58%
11:00 +30°C° 0 mm 3 mps 750 mmHg 54%
12:00 +31°C° 0 mm 3 mps 750 mmHg 50%
13:00 +33°C° 0 mm 3 mps 750 mmHg 49%
14:00 +33°C° 0 mm 3 mps 749 mmHg 49%
15:00 +33°C° 0 mm 3 mps 749 mmHg 48%
16:00 +33°C° 0 mm 3 mps 749 mmHg 53%
17:00 +32°C° 0 mm 2 mps 749 mmHg 58%
18:00 +31°C° 0 mm 2 mps 749 mmHg 63%
19:00 +29°C° 0 mm 2 mps 749 mmHg 67%
20:00 +28°C° 0 mm 2 mps 749 mmHg 70%
21:00 +26°C° 0 mm 2 mps 749 mmHg 74%
22:00 +25°C° 0 mm 2 mps 749 mmHg 75%
23:00 +25°C° 0 mm 2 mps 749 mmHg 76%

24 June, Thursday

Time Temperature Precipitation Wind Pressure Humidity
00:00 +24°C° 0 mm 2 mps 749 mmHg 77%
01:00 +24°C° 0 mm 2 mps 749 mmHg 77%
02:00 +23°C° 0 mm 1 mps 749 mmHg 77%
03:00 +23°C° 0 mm 1 mps 749 mmHg 76%
04:00 +23°C° 0 mm 1 mps 749 mmHg 76%
05:00 +24°C° 0 mm 1 mps 749 mmHg 75%
06:00 +24°C° 0 mm 1 mps 750 mmHg 75%
07:00 +26°C° 0 mm 1 mps 750 mmHg 69%
08:00 +28°C° 0 mm 1 mps 750 mmHg 64%
09:00 +29°C° 0 mm 1 mps 750 mmHg 58%
10:00 +30°C° 0 mm 1 mps 750 mmHg 55%
11:00 +31°C° 0 mm 1 mps 749 mmHg 52%
12:00 +32°C° 0 mm 1 mps 749 mmHg 49%
13:00 +32°C° 0 mm 1 mps 749 mmHg 48%
14:00 +33°C° 0 mm 1 mps 749 mmHg 46%
15:00 +31°C° 0 mm 0 mps 749 mmHg 45%
16:00 +31°C° 0.6 mm 2 mps 749 mmHg 53%
17:00 +30°C° 0.6 mm 3 mps 749 mmHg 61%
18:00 +28°C° 0.6 mm 4 mps 749 mmHg 70%
19:00 +27°C° 0.7 mm 3 mps 749 mmHg 67%
20:00 +25°C° 0.7 mm 2 mps 749 mmHg 64%
21:00 +24°C° 0.7 mm 1 mps 748 mmHg 62%
22:00 +24°C° 0 mm 1 mps 749 mmHg 63%
23:00 +23°C° 0 mm 1 mps 749 mmHg 64%

25 June, Friday

Time Temperature Precipitation Wind Pressure Humidity
00:00 +22°C° 0 mm 1 mps 749 mmHg 65%
01:00 +22°C° 0 mm 1 mps 749 mmHg 66%
02:00 +22°C° 0 mm 1 mps 749 mmHg 66%
03:00 +21°C° 0 mm 1 mps 749 mmHg 66%
04:00 +22°C° 0 mm 1 mps 749 mmHg 68%
05:00 +23°C° 0 mm 1 mps 749 mmHg 69%
06:00 +24°C° 0 mm 1 mps 749 mmHg 71%
07:00 +25°C° 0 mm 1 mps 749 mmHg 68%
08:00 +27°C° 0 mm 1 mps 749 mmHg 65%
09:00 +28°C° 0 mm 1 mps 749 mmHg 62%
10:00 +30°C° 0 mm 1 mps 749 mmHg 59%
11:00 +31°C° 0 mm 1 mps 749 mmHg 56%
12:00 +30°C° 0 mm 0 mps 749 mmHg 53%
13:00 +32°C° 0 mm 1 mps 749 mmHg 52%
14:00 +33°C° 0 mm 1 mps 749 mmHg 51%
15:00 +34°C° 0 mm 2 mps 748 mmHg 50%
16:00 +34°C° 0 mm 2 mps 748 mmHg 53%
17:00 +32°C° 0 mm 1 mps 748 mmHg 56%
18:00 +32°C° 0 mm 1 mps 747 mmHg 58%
19:00 +29°C° 0.4 mm 2 mps 747 mmHg 67%
20:00 +26°C° 0.4 mm 3 mps 748 mmHg 76%
21:00 +22°C° 0.4 mm 4 mps 748 mmHg 85%
22:00 +21°C° 0.3 mm 3 mps 748 mmHg 86%
23:00 +20°C° 0.3 mm 2 mps 748 mmHg 87%
Show more